User: anonymous   Login
Location: Caltech
(34.1382°N, 118.1253°W)
Time: 23:40:20
(UTC-07:00)
Language:

AO-27 - Orbit

View from above orbital plane
View from above orbital plane
View from above satellite
View from above satellite

Ground track
Ground track

The orbit data is extracted from the following two-line orbital elements,

1 22825U 93061C   17113.89600194 +.00000031 +00000-0 +29802-4 0  9997
2 22825 098.8068 078.8265 0009279 125.5242 234.6806 14.29993366229378
Epoch (UTC): 23 April 2017 21:30:14
Eccentricity: 0.0009279
inclination: 98.8068°
perigee height: 785 km
apogee height: 798 km
right ascension of ascending node: 78.8265°
argument of perigee: 125.5242°
revolutions per day: 14.29993366
mean anomaly at epoch: 234.6806°
orbit number at epoch: 22937

The dashed part of the orbit path shows where the satellite is in the earth's shadow,  

DLR